Location: Béaulencourt
(50.0796°N, 2.8795°E)
Time: 00:51:22
(UTC+00:00)

IRS-1D - Pass Details

Date: 20 January 2026
Orbit: 737 x 810 km, 98.8° (Epoch: 17 February)

Event Time Altitude Azimuth Distance (km) Brightness Sun altitude
Rises 05:46:47 0° 11° (N) 3,339 6.8 -17.3°
Reaches altitude 10° 05:49:11 10° 6° (N) 2,407 6.0 -16.9°
Maximum altitude 05:54:16 47° 294° (WNW) 1,066 3.8 -16.1°
Drops below altitude 10° 05:59:19 10° 221° (SW) 2,388 5.8 -15.3°
Sets 06:01:43 0° 216° (SW) 3,309 6.6 -14.9°
